Dewpoint
30 30 31 32 33 33 33 33 34 34 34 33 33 33 33 33 33 33 33 33 33 33 33 33 33 33 32 32 32 32 31 31 30 31 31 31 30 30 30 30 30 29 29 29 29 29 28 28 28 27 27 27 27 26 26 25 25 25 24 24 24 24 23 23 23 23 22 22 22
31 31 32 33 34 34 33 33 34 34 34 34 34 34 33 33 33 33 33 33 33 33 33 33 33 33 33 33 33 32 32 31 31 31 31 31 30 30 30 30 30 29 29 29 29 29 29 28 28 27 27 27 27 26 26 26 25 25 24 24 24 24 24 23 23 23 22 22 22
31 31 32 32 32 32 32 33 33 33 33 34 34 34 34 34 34 33 33 33 33 33 33 33 33 33 33 33 33 33 32 32 32 31 31 31 30 30 30 30 30 30 30 30 29 29 29 28 28 28 28 27 27 26 26 26 26 25 25 24 24 24 24 24 23 23 23 23 23
30 31 31 31 31 31 31 32 32 32 33 33 33 33 33 33 33 33 33 33 33 33 33 33 32 33 33 33 33 33 33 33 33 32 31 31 31 30 30 30 30 30 30 30 30 29 29 29 29 28 28 27 27 26 26 26 26 26 25 25 24 24 24 24 24 24 23 23 23
30 30 30 30 30 30 31 31 31 31 32 32 32 32 32 32 32 32 32 32 32 32 33 33 32 32 32 33 33 32 33 33 34 34 33 32 31 31 31 30 30 30 30 30 30 29 29 28 28 28 28 28 27 27 26 26 26 26 25 25 25 25 24 24 24 24 24 23 23
30 30 30 30 30 30 30 30 30 31 31 31 31 31 31 31 32 32 32 32 32 32 33 33 33 33 33 33 33 33 33 32 33 33 33 32 32 32 31 31 30 30 30 30 30 29 29 28 28 28 28 28 27 27 26 26 26 26 26 25 25 25 25 24 24 24 24 24 23
30 30 30 30 29 30 30 30 30 30 30 30 30 30 30 31 31 31 31 31 32 32 32 33 33 33 33 32 32 32 32 32 32 32 32 32 32 32 32 31 30 30 30 30 30 29 29 29 28 28 29 29 28 27 26 26 26 26 26 25 25 25 25 25 25 24 24 24 24
30 30 30 30 30 30 30 30 30 30 30 30 30 30 30 31 31 31 31 31 31 31 32 32 31 31 31 31 31 31 31 32 32 32 32 32 32 31 31 31 30 30 30 30 29 29 29 29 29 28 28 28 28 27 27 26 26 26 26 26 25 26 26 26 26 26 25 24 25
30 30 31 31 31 31 31 31 31 31 31 31 32 32 32 32 32 32 32 32 32 32 32 32 31 31 31 31 31 31 31 31 31 31 31 31 31 31 31 31 30 30 30 29 29 29 29 29 29 28 28 28 28 28 28 27 26 26 26 26 26 26 26 26 26 26 25 25 25
32 32 32 32 32 33 33 33 32 32 32 32 32 32 33 35 35 34 33 33 33 33 33 32 32 32 31 31 31 31 31 31 31 31 31 31 31 31 31 30 30 30 30 30 29 29 28 28 28 28 28 28 28 29 28 28 27 27 26 26 26 26 26 26 26 25 25 25 25
33 33 33 33 33 34 34 34 34 34 33 33 33 33 33 35 34 34 33 33 33 32 32 32 32 31 31 31 31 31 31 31 31 31 30 30 31 31 30 30 30 30 30 30 29 29 28 28 28 28 28 28 29 29 29 28 28 27 27 27 27 27 26 26 26 26 25 25 25
33 33 34 34 33 33 33 33 33 34 34 33 33 33 33 33 32 33 33 33 32 32 32 32 31 31 31 31 31 31 31 31 31 31 30 30 30 30 30 30 30 30 30 29 29 28 28 28 28 28 28 28 29 29 29 28 28 28 28 27 27 27 27 27 26 26 26 26 26
34 34 34 34 33 33 33 33 33 33 33 33 33 33 32 32 33 33 33 32 32 32 32 32 32 31 31 31 31 31 31 31 31 31 31 30 30 30 30 30 30 30 30 30 29 28 28 28 28 28 28 28 29 29 29 29 28 28 28 27 27 27 27 27 27 26 26 26 26
33 33 33 33 33 33 33 33 33 33 33 33 33 32 32 32 33 33 33 32 32 32 32 32 32 32 32 31 31 31 31 31 31 31 31 31 30 30 30 30 30 30 30 30 29 28 28 28 28 28 28 28 28 29 29 29 29 29 28 28 27 27 27 26 26 26 26 26 26
33 33 33 33 33 33 33 33 33 33 33 33 32 32 32 32 32 33 33 32 32 32 32 31 31 32 32 32 32 32 32 32 31 31 31 31 31 30 30 30 30 30 30 30 29 29 28 28 28 28 28 28 28 29 29 29 29 29 29 29 28 27 27 26 26 26 27 27 26
33 33 33 33 33 33 33 33 33 33 33 33 32 32 32 32 32 32 33 32 32 32 31 31 31 31 31 32 32 32 32 32 32 31 31 31 31 31 30 30 30 30 30 30 30 29 28 28 28 28 28 29 29 29 29 29 29 29 29 29 28 28 28 27 27 27 27 27 27
33 33 33 33 33 33 33 33 33 33 33 33 33 32 32 32 32 32 33 33 32 31 31 31 30 30 30 31 32 32 32 32 32 32 32 32 31 31 31 31 31 31 30 30 30 29 29 28 28 28 29 29 29 29 29 29 29 29 29 29 29 28 28 29 29 29 28 28 27
33 33 33 33 34 33 33 33 33 33 33 33 33 32 32 32 32 32 32 32 32 31 31 30 30 30 30 30 31 31 32 32 32 32 32 32 32 32 31 31 31 31 31 30 30 30 29 29 28 28 28 29 29 29 30 30 30 29 29 29 29 29 29 30 30 29 29 28 28
34 34 34 34 34 34 34 34 34 34 33 33 33 32 32 32 32 31 31 31 31 31 31 30 30 30 30 30 30 31 32 32 32 32 32 32 32 32 32 31 31 31 31 31 30 30 30 29 29 28 28 28 29 29 29 29 29 29 29 29 29 29 29 29 30 29 29 28 28
34 35 35 35 35 35 35 35 34 34 33 33 33 32 32 32 32 31 31 31 31 31 30 30 30 30 30 30 30 30 31 32 32 32 32 32 32 32 32 31 31 31 31 31 31 30 30 30 29 29 29 29 28 28 28 28 28 28 29 29 29 29 29 29 29 29 29 29 29
35 35 35 35 35 35 35 34 34 33 33 33 33 32 32 32 31 31 31 31 31 31 30 30 30 30 30 30 30 30 31 32 32 32 32 32 32 32 32 32 32 31 31 31 31 30 30 30 30 29 29 29 29 28 28 28 28 28 28 29 29 29 29 28 28 28 28 29 29
36 36 35 35 35 35 34 34 34 33 33 33 32 32 32 31 31 31 31 31 31 31 30 30 30 30 30 30 30 30 31 31 32 32 32 32 32 33 32 32 32 31 31 31 31 30 30 30 30 30 29 29 29 29 28 28 28 28 28 28 28 28 28 28 28 28 28 28 29
36 35 35 35 34 35 35 35 34 33 33 32 32 32 31 31 31 31 31 31 31 31 30 30 30 30 30 30 30 30 31 31 31 32 32 32 32 32 32 32 32 31 31 31 31 30 30 30 30 29 29 29 29 29 28 28 28 28 28 27 27 28 28 28 27 27 28 28 28
35 35 35 35 34 34 34 34 33 33 32 32 31 31 31 31 31 31 31 31 31 31 30 30 30 30 30 30 30 30 31 31 31 32 32 32 32 32 32 32 32 31 31 32 32 32 32 31 30 30 29 29 29 29 28 28 28 28 28 27 27 27 27 27 27 27 27 27 27
35 34 35 34 34 34 34 33 33 32 32 31 31 31 31 31 31 31 31 31 31 31 30 30 30 30 30 30 31 31 31 31 32 32 32 32 32 32 32 32 32 32 32 33 35 36 36 36 34 32 31 30 29 29 29 28 28 28 28 28 27 27 27 27 27 27 27 27 27
34 34 34 34 34 33 33 32 32 31 31 31 31 31 31 31 31 31 31 31 31 31 31 30 30 31 31 31 31 32 32 32 32 32 32 32 32 32 32 32 32 32 33 34 36 37 38 38 38 36 35 32 30 30 29 29 28 28 28 28 28 27 27 27 26 26 26 26 26
34 34 34 34 33 33 32 31 31 31 31 31 31 31 31 31 31 31 31 31 31 31 31 31 31 32 33 32 32 32 32 32 33 32 32 32 32 32 32 32 33 33 33 35 37 38 39 39 39 39 38 35 33 31 30 30 29 28 28 28 27 27 27 27 26 26 26 26 26
34 34 34 33 33 32 32 31 31 31 31 31 31 31 31 32 31 31 31 31 31 31 31 31 32 32 32 32 32 32 32 33 33 33 33 33 32 32 32 32 33 33 35 37 38 39 39 39 39 39 39 38 36 34 32 31 30 29 28 28 28 27 27 27 27 26 26 26 26
35 34 34 33 32 32 32 31 31 31 31 31 32 32 32 32 32 32 31 31 31 31 32 32 32 32 32 32 32 33 33 33 33 33 33 33 32 32 32 32 32 34 35 38 39 39 39 39 40 40 39 39 38 37 36 35 33 31 30 29 28 28 27 27 27 27 26 26 26
35 34 33 33 32 32 32 32 32 32 32 32 32 32 32 32 32 32 32 32 32 32 32 32 32 32 32 32 32 33 33 33 33 33 33 32 32 32 32 33 33 34 35 38 39 39 39 40 40 40 40 39 39 38 37 36 35 33 32 30 30 29 28 27 27 27 26 26 26
34 34 33 33 33 32 32 32 32 32 32 32 32 32 32 32 32 32 32 32 32 32 33 32 32 32 32 32 32 32 33 33 33 33 33 32 33 33 33 33 32 34 35 38 39 39 39 40 40 40 40 39 39 39 37 37 36 35 34 33 31 30 29 28 28 27 27 26 26
34 34 33 33 33 33 32 32 32 32 32 32 32 32 32 32 32 32 32 32 32 32 32 32 31 31 31 32 32 32 32 33 33 33 33 33 33 33 33 33 33 34 35 38 39 39 39 40 40 40 40 39 39 38 37 37 37 36 35 35 33 31 30 30 30 29 28 27 27
34 34 33 33 33 32 32 32 32 32 32 32 32 32 32 32 32 32 32 32 31 31 31 31 31 31 31 31 32 32 32 33 33 34 35 35 34 34 34 34 33 35 36 38 39 39 39 40 40 40 40 39 39 38 37 37 37 36 36 36 35 34 32 31 30 30 29 28 27
34 33 33 33 33 32 32 32 32 32 32 32 32 32 32 32 32 32 31 31 31 30 30 30 30 31 31 31 32 32 33 34 34 34 34 34 34 34 34 34 34 35 37 39 39 39 39 40 40 40 39 39 39 38 37 37 36 36 36 36 35 35 34 33 32 31 30 30 29
33 33 33 33 32 32 32 32 32 32 32 32 32 32 32 32 31 31 30 31 31 30 30 30 30 31 31 32 32 33 33 34 34 34 34 34 34 34 34 34 34 35 37 39 39 39 39 39 40 39 39 39 39 38 37 37 36 36 36 35 35 35 35 34 33 32 31 30 30
33 33 33 32 32 32 32 32 31 31 31 31 31 31 31 31 30 30 30 31 30 30 30 30 30 31 31 32 32 33 34 34 34 34 34 34 35 34 34 34 34 35 37 39 39 39 39 39 39 39 39 39 38 38 37 37 36 36 35 35 35 35 35 34 34 33 32 31 30
33 32 32 32 31 31 31 31 31 31 31 31 31 30 30 30 30 30 30 30 30 30 30 30 30 31 31 32 33 33 34 34 34 34 35 35 35 35 35 35 34 35 36 38 39 39 39 39 39 39 39 38 37 37 37 37 36 36 35 35 35 35 35 35 34 33 33 32 31
32 31 31 31 31 31 31 31 30 30 30 30 30 30 30 30 30 30 30 30 30 30 30 30 31 31 32 32 33 34 34 34 35 35 35 35 35 35 35 35 35 35 35 37 38 39 39 39 39 39 38 37 36 36 36 36 36 36 35 35 35 35 34 35 34 34 33 32 33
31 31 31 30 30 30 30 30 30 30 30 30 30 30 30 30 30 30 30 30 30 30 30 31 31 32 32 33 34 34 35 35 35 35 35 35 35 36 36 35 35 35 35 37 38 39 39 39 39 39 39 37 37 36 36 36 36 35 35 35 35 34 34 34 34 34 33 33 35
30 30 30 30 30 30 30 30 29 29 29 29 29 29 29 29 30 30 30 30 30 30 31 31 32 32 33 34 34 34 35 35 35 35 35 36 36 37 37 36 35 35 35 37 38 38 39 39 39 39 38 37 37 36 36 36 36 35 35 34 34 34 34 33 33 33 33 32 34
30 30 30 30 30 29 29 29 29 29 29 29 29 29 29 30 30 30 30 30 30 30 31 31 32 32 33 34 34 34 34 35 35 35 35 36 36 36 36 35 35 35 35 35 37 38 38 38 38 38 38 37 36 36 36 36 35 35 34 34 33 33 33 33 33 33 33 32 32